When you browse on this site, cookies collect data to enhance your experience and personalize the content and advertising you see.
Visit our Privacy Policy to learn more. By continuing to use the site, you agree to this use of cookies and data.
  • In Latvia
  • List of Countries
  • For 7 days
  • Water Temperature
  • Satellite Maps
  • Weather Map
  • Weather Widgets
  • user-avatar
    Login

    Hourly Weather Malyachkino

    Today, 18 June, Tuesday

    Time Temperature Precipitation Wind Pressure Humidity
    00:00 +16°C° 0 mm 2 mps 753 mmHg 81%
    01:00 +16°C° 0 mm 2 mps 753 mmHg 80%
    02:00 +16°C° 0 mm 2 mps 753 mmHg 79%
    03:00 +17°C° 0 mm 2 mps 753 mmHg 78%
    04:00 +17°C° 0 mm 2 mps 753 mmHg 79%
    05:00 +18°C° 0 mm 2 mps 753 mmHg 79%
    06:00 +18°C° 0 mm 2 mps 753 mmHg 79%
    07:00 +20°C° 0.1 mm 2 mps 753 mmHg 73%
    08:00 +21°C° 0.1 mm 2 mps 753 mmHg 68%
    09:00 +24°C° 0.1 mm 2 mps 753 mmHg 62%
    10:00 +24°C° 0.4 mm 2 mps 753 mmHg 61%
    11:00 +25°C° 0.4 mm 2 mps 753 mmHg 60%
    12:00 +25°C° 0.4 mm 2 mps 753 mmHg 59%
    13:00 +25°C° 0.7 mm 2 mps 752 mmHg 60%
    14:00 +25°C° 0.7 mm 3 mps 752 mmHg 62%
    15:00 +25°C° 0.7 mm 3 mps 752 mmHg 63%
    16:00 +25°C° 0.3 mm 3 mps 752 mmHg 68%
    17:00 +24°C° 0.3 mm 2 mps 752 mmHg 73%
    18:00 +24°C° 0.3 mm 2 mps 752 mmHg 77%
    19:00 +21°C° 0.3 mm 2 mps 752 mmHg 80%
    20:00 +19°C° 0.3 mm 2 mps 752 mmHg 84%
    21:00 +18°C° 0.3 mm 2 mps 752 mmHg 87%
    22:00 +17°C° 0 mm 2 mps 752 mmHg 88%
    23:00 +17°C° 0 mm 2 mps 752 mmHg 90%

    Tomorrow, 19 June, Wednesday

    Time Temperature Precipitation Wind Pressure Humidity
    00:00 +17°C° 0 mm 2 mps 752 mmHg 92%
    01:00 +16°C° 0 mm 2 mps 751 mmHg 92%
    02:00 +16°C° 0 mm 2 mps 751 mmHg 92%
    03:00 +16°C° 0 mm 2 mps 751 mmHg 92%
    04:00 +17°C° 0 mm 2 mps 751 mmHg 89%
    05:00 +18°C° 0 mm 2 mps 751 mmHg 87%
    06:00 +19°C° 0 mm 2 mps 751 mmHg 84%
    07:00 +20°C° 0.2 mm 2 mps 751 mmHg 79%
    08:00 +23°C° 0.2 mm 2 mps 751 mmHg 73%
    09:00 +24°C° 0.2 mm 3 mps 751 mmHg 68%
    10:00 +25°C° 0.2 mm 3 mps 751 mmHg 63%
    11:00 +26°C° 0.2 mm 3 mps 752 mmHg 59%
    12:00 +26°C° 0.2 mm 3 mps 752 mmHg 54%
    13:00 +26°C° 0.1 mm 3 mps 752 mmHg 56%
    14:00 +26°C° 0.1 mm 3 mps 752 mmHg 57%
    15:00 +26°C° 0.1 mm 4 mps 751 mmHg 58%
    16:00 +26°C° 0.1 mm 3 mps 752 mmHg 62%
    17:00 +25°C° 0.1 mm 3 mps 752 mmHg 67%
    18:00 +25°C° 0.1 mm 2 mps 752 mmHg 71%
    19:00 +23°C° 0 mm 2 mps 752 mmHg 76%
    20:00 +20°C° 0 mm 2 mps 752 mmHg 81%
    21:00 +19°C° 0 mm 3 mps 753 mmHg 86%
    22:00 +18°C° 0 mm 3 mps 753 mmHg 87%
    23:00 +18°C° 0 mm 3 mps 753 mmHg 89%

    Day after tomorrow, 20 June, Thursday

    Time Temperature Precipitation Wind Pressure Humidity
    00:00 +17°C° 0 mm 3 mps 753 mmHg 90%
    01:00 +17°C° 0 mm 3 mps 754 mmHg 91%
    02:00 +16°C° 0 mm 3 mps 754 mmHg 92%
    03:00 +16°C° 0 mm 3 mps 754 mmHg 93%
    04:00 +17°C° 0 mm 3 mps 754 mmHg 90%
    05:00 +18°C° 0 mm 3 mps 754 mmHg 87%
    06:00 +19°C° 0 mm 3 mps 755 mmHg 84%
    07:00 +21°C° 0 mm 3 mps 755 mmHg 77%
    08:00 +22°C° 0 mm 3 mps 755 mmHg 71%
    09:00 +25°C° 0 mm 3 mps 755 mmHg 64%
    10:00 +26°C° 0 mm 3 mps 755 mmHg 60%
    11:00 +27°C° 0 mm 3 mps 755 mmHg 57%
    12:00 +28°C° 0 mm 3 mps 755 mmHg 53%
    13:00 +28°C° 0 mm 3 mps 755 mmHg 53%
    14:00 +28°C° 0 mm 3 mps 755 mmHg 53%
    15:00 +28°C° 0 mm 3 mps 755 mmHg 54%
    16:00 +28°C° 0.1 mm 3 mps 755 mmHg 58%
    17:00 +27°C° 0.1 mm 2 mps 755 mmHg 63%
    18:00 +26°C° 0.1 mm 2 mps 756 mmHg 67%
    19:00 +25°C° 0 mm 2 mps 756 mmHg 70%
    20:00 +23°C° 0 mm 2 mps 756 mmHg 74%
    21:00 +20°C° 0 mm 2 mps 756 mmHg 77%
    22:00 +19°C° 0 mm 2 mps 756 mmHg 78%
    23:00 +19°C° 0 mm 2 mps 756 mmHg 80%

    21 June, Friday

    Time Temperature Precipitation Wind Pressure Humidity
    00:00 +18°C° 0 mm 2 mps 757 mmHg 81%
    01:00 +18°C° 0 mm 2 mps 757 mmHg 82%
    02:00 +18°C° 0 mm 2 mps 757 mmHg 83%
    03:00 +17°C° 0 mm 2 mps 757 mmHg 84%
    04:00 +18°C° 0 mm 2 mps 757 mmHg 82%
    05:00 +19°C° 0 mm 2 mps 758 mmHg 80%
    06:00 +20°C° 0 mm 2 mps 758 mmHg 78%
    07:00 +23°C° 0 mm 2 mps 758 mmHg 72%
    08:00 +24°C° 0 mm 2 mps 758 mmHg 67%
    09:00 +26°C° 0 mm 2 mps 758 mmHg 61%
    10:00 +27°C° 0 mm 2 mps 758 mmHg 57%
    11:00 +27°C° 0 mm 2 mps 758 mmHg 53%
    12:00 +28°C° 0 mm 2 mps 758 mmHg 50%
    13:00 +28°C° 0 mm 2 mps 758 mmHg 49%
    14:00 +29°C° 0 mm 2 mps 758 mmHg 48%
    15:00 +29°C° 0 mm 2 mps 758 mmHg 47%
    16:00 +28°C° 0 mm 2 mps 758 mmHg 53%
    17:00 +27°C° 0 mm 2 mps 758 mmHg 58%
    18:00 +27°C° 0 mm 2 mps 758 mmHg 64%
    19:00 +25°C° 0 mm 2 mps 758 mmHg 69%
    20:00 +23°C° 0 mm 1 mps 758 mmHg 73%
    21:00 +21°C° 0 mm 1 mps 758 mmHg 78%
    22:00 +19°C° 0 mm 0 mps 758 mmHg 79%
    23:00 +18°C° 0 mm 0 mps 759 mmHg 80%

    22 June, Saturday

    Time Temperature Precipitation Wind Pressure Humidity
    00:00 +18°C° 0 mm 0 mps 759 mmHg 82%
    01:00 +17°C° 0 mm 0 mps 759 mmHg 82%
    02:00 +17°C° 0 mm 0 mps 759 mmHg 83%
    03:00 +19°C° 0 mm 1 mps 759 mmHg 83%
    04:00 +18°C° 0 mm 0 mps 759 mmHg 80%
    05:00 +19°C° 0 mm 0 mps 759 mmHg 77%
    06:00 +20°C° 0 mm 0 mps 760 mmHg 75%
    07:00 +22°C° 0 mm 0 mps 759 mmHg 70%
    08:00 +23°C° 0 mm 0 mps 759 mmHg 65%
    09:00 +25°C° 0 mm 0 mps 759 mmHg 60%
    10:00 +26°C° 0 mm 0 mps 759 mmHg 55%
    11:00 +28°C° 0 mm 1 mps 759 mmHg 51%
    12:00 +29°C° 0 mm 1 mps 759 mmHg 47%
    13:00 +29°C° 0 mm 1 mps 759 mmHg 46%
    14:00 +29°C° 0 mm 1 mps 759 mmHg 45%
    15:00 +29°C° 0 mm 1 mps 759 mmHg 44%
    16:00 +29°C° 0 mm 1 mps 758 mmHg 48%
    17:00 +29°C° 0 mm 1 mps 758 mmHg 53%
    18:00 +28°C° 0 mm 1 mps 758 mmHg 57%
    19:00 +26°C° 0 mm 1 mps 758 mmHg 60%
    20:00 +24°C° 0 mm 1 mps 758 mmHg 62%
    21:00 +22°C° 0 mm 1 mps 759 mmHg 65%
    22:00 +22°C° 0 mm 1 mps 759 mmHg 67%
    23:00 +19°C° 0 mm 0 mps 759 mmHg 69%

    23 June, Sunday

    Time Temperature Precipitation Wind Pressure Humidity
    00:00 +18°C° 0 mm 0 mps 759 mmHg 71%
    01:00 +18°C° 0 mm 0 mps 759 mmHg 72%
    02:00 +18°C° 0 mm 0 mps 759 mmHg 74%
    03:00 +17°C° 0 mm 0 mps 759 mmHg 75%
    04:00 +19°C° 0 mm 0 mps 759 mmHg 73%
    05:00 +20°C° 0 mm 0 mps 759 mmHg 71%
    06:00 +21°C° 0 mm 0 mps 759 mmHg 70%
    07:00 +25°C° 0 mm 1 mps 759 mmHg 65%
    08:00 +26°C° 0 mm 1 mps 759 mmHg 60%
    09:00 +28°C° 0 mm 1 mps 759 mmHg 55%
    10:00 +29°C° 0 mm 1 mps 759 mmHg 51%
    11:00 +30°C° 0 mm 1 mps 759 mmHg 47%
    12:00 +30°C° 0 mm 1 mps 759 mmHg 43%
    13:00 +30°C° 0 mm 1 mps 758 mmHg 43%
    14:00 +31°C° 0 mm 1 mps 758 mmHg 43%
    15:00 +31°C° 0 mm 1 mps 758 mmHg 42%
    16:00 +30°C° 0 mm 1 mps 758 mmHg 47%
    17:00 +30°C° 0 mm 1 mps 757 mmHg 52%
    18:00 +30°C° 0 mm 1 mps 757 mmHg 56%
    19:00 +28°C° 0 mm 1 mps 757 mmHg 59%
    20:00 +24°C° 0 mm 0 mps 757 mmHg 62%
    21:00 +22°C° 0 mm 0 mps 758 mmHg 65%
    22:00 +21°C° 0 mm 0 mps 757 mmHg 67%
    23:00 +21°C° 0 mm 0 mps 757 mmHg 69%
    Show more